[TLELIST] Archives

 

[list_settings.list_name] Current TLEs

September 4th 2008 PST

HST 1 20580U 90037B 08246.90410479 +.00000257 +00000-0 +69646-5 0 02272 2 20580 028.4677 176.3286 0003876 131.4998 228.5923 15.00403471806665 ISS (ZARYA) 1 25544U 98067A 08247.79933028 .00008170 00000-0 65942-4 0 1833 2 25544 051.6447 333.0591 0006944 076.6395 020.1703 15.71894413560908 CXO 1 25867U 99040B 08246.87500000 +.00000015 +00000-0 +10000-3 0 02397 2 25867 064.1281 078.2852 6973688 278.0750 354.5698 00.37804774003924 ____________________________________________________________________ These 2-Line ...Continue Reading

[list_settings.list_name] Current TLEs

September 3rd 2008 PST

HST 1 20580U 90037B 08247.17017627 .00000249 00000-0 63711-5 0 2133 2 20580 028.4676 174.5921 0003893 134.3868 225.7041 15.00403453806702 ISS (ZARYA) 1 25544U 98067A 08245.82842788 +.00007657 +00000-0 +62192-4 0 01717 2 25544 051.6448 343.1462 0006945 069.7800 026.6603 15.71857623560590 CXO 1 25867U 99040B 08246.87500000 +.00000015 +00000-0 +10000-3 0 02397 2 25867 064.1281 078.2852 6973688 278.0750 354.5698 00.37804774003924 ____________________________________________________________________ These 2-Line ...Continue Reading

[list_settings.list_name] Current TLEs

September 2nd 2008 PST

HST 1 20580U 90037B 08245.90633620 .00000274 00000-0 82845-5 0 2125 2 20580 028.4677 182.8364 0003850 120.8137 239.2826 15.00403410806511 ISS (ZARYA) 1 25544U 98067A 08245.52570602 .00007583 00000-0 61654-4 0 1694 2 25544 051.6446 344.6957 0006909 069.0362 113.2432 15.71852029560542 CXO 1 25867U 99040B 08244.25000000 +.00000044 +00000-0 +10000-3 0 02383 2 25867 064.1128 078.3494 6969345 278.1170 357.1450 00.37806153003916 ____________________________________________________________________ These 2-Line ...Continue Reading

[list_settings.list_name] Current TLEs

September 1st 2008 PST

HST 1 20580U 90037B 08243.97731577 +.00000284 +00000-0 +90932-5 0 02150 2 20580 028.4679 195.4162 0003808 101.2771 258.8241 15.00403118806220 ISS (ZARYA) 1 25544U 98067A 08243.85740898 +.00007388 +00000-0 +60257-4 0 01583 2 25544 051.6446 353.2357 0006923 062.4355 033.2337 15.71824208560281 CXO 1 25867U 99040B 08244.25000000 +.00000044 +00000-0 +10000-3 0 02383 2 25867 064.1128 078.3494 6969345 278.1170 357.1450 00.37806153003916 ____________________________________________________________________ These 2-Line ...Continue Reading

[list_settings.list_name] Current TLEs

August 31st 2008 PST

HST 1 20580U 90037B 08242.97954633 +.00000291 +00000-0 +96195-5 0 02266 2 20580 028.4680 201.9238 0003767 090.4750 269.6271 15.00402929806074 ISS (ZARYA) 1 25544U 98067A 08243.53835338 .00007468 00000-0 60874-4 0 1564 2 25544 051.6443 354.8695 0006895 061.8030 027.2576 15.71819357560233 CXO 1 25867U 99040B 08244.25000000 +.00000044 +00000-0 +10000-3 0 02383 2 25867 064.1128 078.3494 6969345 278.1170 357.1450 00.37806153003916 ____________________________________________________________________ These 2-Line ...Continue Reading

[list_settings.list_name] Current TLEs

August 30th 2008 PST

HST 1 20580U 90037B 08243.17910035 .00000279 00000-0 87530-5 0 2109 2 20580 028.4679 200.6216 0003778 092.6027 267.4995 15.00402869806103 ISS (ZARYA) 1 25544U 98067A 08242.52327631 .00007860 00000-0 63862-4 0 1492 2 25544 051.6432 000.0656 0006797 058.2075 043.1520 15.71802768560074 CXO 1 25867U 99040B 08241.62500000 +.00000013 +00000-0 +10000-3 0 02371 2 25867 064.1066 078.4493 6963378 278.1441 359.7433 00.37802321003909 ____________________________________________________________________ These 2-Line ...Continue Reading

[list_settings.list_name] Current TLEs

August 29th 2008 PST

HST 1 20580U 90037B 08241.31659613 .00000294 00000-0 99176-5 0 2099 2 20580 028.4681 212.7682 0003749 072.8240 287.2759 15.00402555805820 ISS (ZARYA) 1 25544U 98067A 08241.50381381 .00000794 00000-0 10655-4 0 1425 2 25544 051.6429 005.2860 0006422 054.0673 034.8176 15.71777722559913 CXO 1 25867U 99040B 08241.62500000 +.00000013 +00000-0 +10000-3 0 02371 2 25867 064.1066 078.4493 6963378 278.1441 359.7433 00.37802321003909 ____________________________________________________________________ These 2-Line ...Continue Reading

[list_settings.list_name] Current TLEs

August 28th 2008 PST

HST 1 20580U 90037B 08239.98623540 +.00000309 +00000-0 +11029-4 0 02210 2 20580 028.4686 221.4483 0003618 059.7570 300.3381 15.00402421805624 ISS (ZARYA) 1 25544U 98067A 08240.75016248 .00006540 00000-0 55344-4 0 1360 2 25544 051.6434 009.1366 0008845 063.0312 078.3661 15.71158121559798 CXO 1 25867U 99040B 08239.00000000 -.00000004 +00000-0 +10000-3 0 02365 2 25867 064.1032 078.5165 6956148 278.2090 002.3190 00.37795790003897 ____________________________________________________________________ These 2-Line ...Continue Reading

[list_settings.list_name] Current TLEs

August 27th 2008 PST

HST 1 20580U 90037B 08240.18578958 .00000286 00000-0 92737-5 0 2081 2 20580 028.4682 220.1432 0003724 060.8624 299.2338 15.00402199805654 ISS (ZARYA) 1 25544U 98067A 08239.85900280 .00006746 00000-0 56963-4 0 1307 2 25544 051.6434 013.6935 0008826 060.3551 077.1240 15.71146014559657 CXO 1 25867U 99040B 08239.00000000 -.00000004 +00000-0 +10000-3 0 02365 2 25867 064.1032 078.5165 6956148 278.2090 002.3190 00.37795790003897 ____________________________________________________________________ These 2-Line ...Continue Reading

[list_settings.list_name] Current TLEs

August 26th 2008 PST

HST 1 20580U 90037B 08238.38980160 .00000311 00000-0 11212-4 0 2078 2 20580 028.4687 231.8593 0003619 042.4576 317.6293 15.00401989805382 ISS (ZARYA) 1 25544U 98067A 08237.88716429 +.00006874 +00000-0 +58026-4 0 01188 2 25544 051.6429 023.7751 0008791 053.7228 083.3938 15.71117447559344 CXO 1 25867U 99040B 08239.00000000 -.00000004 +00000-0 +10000-3 0 02365 2 25867 064.1032 078.5165 6956148 278.2090 002.3190 00.37795790003897 ____________________________________________________________________ These 2-Line ...Continue Reading
  • This mailing list is a public mailing list - anyone may join or leave, at any time.
  • This mailing list is announce-only.

International Space Station (ISS) / Hubble Space Telescope (HST) / Chandra X-Ray Observatory Orbital Data via EMAIL

Privacy Policy:

Private list